| time (UTC) | temp F | wind direction | speed MPH | gust MPH | rain 1hr in | rain 24hr in | rain mn in | humidity % | barometer mb |
| 20260504194706 | 55 | 212 | 4.0 | 17.0 | 0.02 | 0.28 | 0.28 | 86 | 1013.2 |
| 20260504194211 | 55 | 248 | 5.0 | 17.0 | 0.03 | 0.28 | 0.28 | 86 | 1013.1 |
| 20260504193716 | 55 | 225 | 8.0 | 17.0 | 0.05 | 0.28 | 0.28 | 87 | 1013.0 |
| 20260504193213 | 55 | 281 | 8.0 | 17.0 | 0.05 | 0.28 | 0.28 | 86 | 1013.0 |
| 20260504192719 | 56 | 209 | 6.0 | 19.0 | 0.05 | 0.28 | 0.28 | 86 | 1012.8 |
| 20260504192216 | 56 | 232 | 9.0 | 20.0 | 0.05 | 0.28 | 0.28 | 87 | 1012.7 |
| 20260504191705 | 56 | 230 | 10.0 | 20.0 | 0.05 | 0.28 | 0.28 | 87 | 1012.5 |
| 20260504191215 | 56 | 237 | 10.0 | 20.0 | 0.06 | 0.28 | 0.28 | 87 | 1012.5 |
| 20260504190713 | 56 | 267 | 9.0 | 21.0 | 0.08 | 0.28 | 0.28 | 88 | 1012.3 |
| 20260504185712 | 56 | 215 | 9.0 | 15.0 | 0.12 | 0.28 | 0.28 | 87 | 1012.3 |
| 20260504185210 | 56 | 292 | 5.0 | 9.0 | 0.12 | 0.28 | 0.28 | 89 | 1012.2 |
| 20260504184713 | 57 | 267 | 5.0 | 10.0 | 0.11 | 0.26 | 0.26 | 90 | 1012.0 |
| 20260504184218 | 57 | 278 | 2.0 | 13.0 | 0.10 | 0.24 | 0.24 | 91 | 1011.9 |
| 20260504183714 | 57 | 230 | 4.0 | 13.0 | 0.09 | 0.24 | 0.24 | 91 | 1011.6 |
| 20260504183212 | 57 | 243 | 4.0 | 10.0 | 0.10 | 0.24 | 0.24 | 91 | 1011.5 |
| 20260504182718 | 57 | 262 | 6.0 | 14.0 | 0.10 | 0.24 | 0.24 | 91 | 1011.5 |
| 20260504182214 | 57 | 268 | 6.0 | 14.0 | 0.10 | 0.24 | 0.24 | 91 | 1011.4 |
| 20260504181209 | 57 | 255 | 4.0 | 11.0 | 0.10 | 0.23 | 0.23 | 91 | 1011.6 |
| 20260504180719 | 57 | 296 | 4.0 | 10.0 | 0.06 | 0.18 | 0.18 | 91 | 1011.5 |
| 20260504180207 | 57 | 268 | 5.0 | 13.0 | 0.06 | 0.17 | 0.17 | 91 | 1011.4 |
| 20260504175713 | 57 | 258 | 5.0 | 13.0 | 0.06 | 0.17 | 0.17 | 91 | 1011.5 |
| 20260504175214 | 57 | 244 | 7.0 | 13.0 | 0.09 | 0.16 | 0.16 | 91 | 1011.4 |
| 20260504174712 | 57 | 246 | 5.0 | 9.0 | 0.12 | 0.15 | 0.15 | 91 | 1011.3 |
| 20260504174216 | 57 | 229 | 4.0 | 10.0 | 0.13 | 0.14 | 0.14 | 91 | 1011.2 |
| 20260504173705 | 57 | 255 | 4.0 | 13.0 | 0.13 | 0.13 | 0.13 | 91 | 1011.3 |
| 20260504173218 | 56 | 248 | 5.0 | 13.0 | 0.13 | 0.13 | 0.13 | 91 | 1011.2 |
| 20260504172706 | 56 | 264 | 6.0 | 14.0 | 0.13 | 0.13 | 0.13 | 91 | 1011.2 |
| 20260504172207 | 56 | 243 | 7.0 | 14.0 | 0.12 | 0.13 | 0.13 | 91 | 1011.2 |
| 20260504171718 | 56 | 271 | 7.0 | 16.0 | 0.12 | 0.13 | 0.13 | 91 | 1011.1 |
| 20260504171219 | 56 | 271 | 8.0 | 16.0 | 0.12 | 0.13 | 0.13 | 91 | 1011.1 |
| 20260504170715 | 56 | 241 | 9.0 | 17.0 | 0.11 | 0.12 | 0.12 | 91 | 1011.0 |
| 20260504170209 | 56 | 232 | 7.0 | 18.0 | 0.11 | 0.12 | 0.12 | 90 | 1011.0 |
| 20260504160211 | 60 | 49 | 8.0 | 17.0 | 0.00 | 0.01 | 0.01 | 86 | 1009.5 |
| 20260504150707 | 62 | 59 | 9.0 | 19.0 | 0.00 | 0.01 | 0.01 | 79 | 1009.8 |
| 20260504150207 | 63 | 16 | 9.0 | 19.0 | 0.00 | 0.01 | 0.01 | 79 | 1009.8 |
| 20260504141214 | 65 | 5 | 12.0 | 19.0 | 0.00 | 0.01 | 0.01 | 77 | 1009.2 |
| 20260504130706 | 65 | 2 | 10.0 | 20.0 | 0.00 | 0.01 | 0.01 | 75 | 1010.3 |
| 20260504130219 | 65 | 4 | 10.0 | 19.0 | 0.00 | 0.01 | 0.01 | 76 | 1010.4 |
| 20260504120212 | 66 | 358 | 10.0 | 16.0 | 0.00 | 0.01 | 0.01 | 75 | 1011.1 |
| 20260504110709 | 65 | 9 | 7.0 | 12.0 | 0.01 | 0.01 | 0.01 | 78 | 1011.6 |
| 20260504110214 | 65 | 4 | 7.0 | 9.0 | 0.01 | 0.01 | 0.01 | 81 | 1011.7 |
| 20260504100216 | 63 | 59 | 2.0 | 6.0 | 0.00 | 0.00 | 0.00 | 82 | 1012.3 |
| 20260504081715 | 62 | 188 | 2.0 | 5.0 | 0.00 | 0.00 | 0.00 | 80 | 1012.6 |
| 20260504081216 | 62 | 209 | 1.0 | 5.0 | 0.00 | 0.00 | 0.00 | 80 | 1012.7 |
| 20260504080714 | 62 | 229 | 1.0 | 5.0 | 0.00 | 0.00 | 0.00 | 81 | 1012.7 |
| 20260504070217 | 60 | 0 | 0.0 | 3.0 | 0.00 | 0.00 | 0.00 | 87 | 1012.3 |
| 20260504060210 | 58 | 0 | 0.0 | 1.0 | 0.00 | 0.00 | 0.00 | 91 | 1011.6 |
| 20260504050711 | 56 | 165 | 1.0 | 3.0 | 0.00 | 0.00 | 0.00 | 92 | 1011.4 |
| 20260504050217 | 56 | 178 | 1.0 | 2.0 | 0.00 | 0.00 | 0.00 | 92 | 1011.5 |
| 20260504045717 | 56 | 210 | 1.0 | 3.0 | 0.00 | 0.00 | 0.00 | 92 | 1011.3 |
| 20260504045211 | 56 | 178 | 0.0 | 3.0 | 0.00 | 0.00 | 0.00 | 92 | 1011.4 |
| 20260504044708 | 55 | 160 | 1.0 | 3.0 | 0.00 | 0.00 | 0.00 | 92 | 1011.4 |
| 20260504044217 | 55 | 230 | 0.0 | 2.0 | 0.00 | 0.00 | 0.00 | 92 | 1011.3 |
| 20260504043712 | 55 | 0 | 0.0 | 2.0 | 0.00 | 0.00 | 0.00 | 92 | 1011.2 |
| 20260504043211 | 55 | 203 | 0.0 | 1.0 | 0.00 | 0.00 | 0.00 | 91 | 1011.3 |
| 20260504042711 | 56 | 0 | 0.0 | 2.0 | 0.00 | 0.00 | 0.00 | 91 | 1011.3 |
| 20260504041706 | 56 | 87 | 1.0 | 3.0 | 0.00 | 0.00 | 0.00 | 91 | 1011.2 |
| 20260504040705 | 56 | 189 | 0.0 | 2.0 | 0.00 | 0.00 | 0.00 | 91 | 1011.2 |
| 20260504040210 | 56 | 139 | 0.0 | 2.0 | 0.00 | 0.00 | 0.00 | 91 | 1011.3 |
| 20260504035705 | 56 | 149 | 2.0 | 2.0 | 0.00 | 0.00 | 0.00 | 91 | 1011.3 |
| 20260504034716 | 56 | 188 | 1.0 | 2.0 | 0.00 | 0.00 | 0.00 | 91 | 1011.4 |
| 20260504034205 | 56 | 205 | 0.0 | 1.0 | 0.00 | 0.00 | 0.00 | 91 | 1011.3 |
| 20260504033711 | 56 | 0 | 0.0 | 1.0 | 0.00 | 0.00 | 0.00 | 91 | 1011.2 |
| 20260504033217 | 56 | 210 | 0.0 | 1.0 | 0.00 | 0.00 | 0.00 | 91 | 1011.2 |
| 20260504032719 | 56 | 88 | 0.0 | 1.0 | 0.00 | 0.00 | 0.00 | 91 | 1011.3 |
| 20260504032212 | 56 | 120 | 0.0 | 2.0 | 0.00 | 0.00 | 0.00 | 91 | 1011.2 |
| 20260504031717 | 56 | 126 | 0.0 | 2.0 | 0.00 | 0.00 | 0.00 | 91 | 1011.1 |
| 20260504031208 | 56 | 156 | 2.0 | 2.0 | 0.00 | 0.00 | 0.00 | 90 | 1011.2 |
| 20260504030710 | 56 | 154 | 1.0 | 2.0 | 0.00 | 0.00 | 0.00 | 90 | 1011.3 |
| 20260504025709 | 57 | 268 | 0.0 | 1.0 | 0.00 | 0.00 | 0.00 | 91 | 1011.4 |
| 20260504024714 | 57 | 0 | 0.0 | 0.0 | 0.00 | 0.00 | 0.00 | 91 | 1011.5 |
| 20260504023716 | 57 | 0 | 0.0 | 2.0 | 0.00 | 0.00 | 0.00 | 90 | 1011.4 |
| 20260504022707 | 57 | 265 | 1.0 | 4.0 | 0.00 | 0.00 | 0.00 | 90 | 1011.6 |
| 20260504022209 | 57 | 333 | 1.0 | 3.0 | 0.00 | 0.00 | 0.00 | 90 | 1011.6 |
| 20260504021708 | 57 | 344 | 1.0 | 3.0 | 0.00 | 0.00 | 0.00 | 90 | 1011.7 |
| 20260504020717 | 57 | 0 | 0.0 | 3.0 | 0.00 | 0.00 | 0.00 | 90 | 1011.6 |
| 20260504020216 | 57 | 320 | 0.0 | 3.0 | 0.00 | 0.00 | 0.00 | 90 | 1011.6 |
| 20260504015706 | 57 | 5 | 1.0 | 4.0 | 0.00 | 0.00 | 0.00 | 89 | 1012.0 |
| 20260504014706 | 57 | 344 | 2.0 | 4.0 | 0.00 | 0.00 | 0.00 | 89 | 1011.7 |
| 20260504014207 | 57 | 355 | 1.0 | 5.0 | 0.00 | 0.00 | 0.00 | 89 | 1011.9 |
| 20260504013714 | 58 | 4 | 2.0 | 5.0 | 0.00 | 0.00 | 0.00 | 89 | 1011.7 |
| 20260504013216 | 58 | 305 | 3.0 | 6.0 | 0.00 | 0.00 | 0.00 | 89 | 1011.7 |
| 20260504012210 | 58 | 1 | 4.0 | 6.0 | 0.00 | 0.00 | 0.00 | 89 | 1011.7 |
| 20260504011718 | 58 | 35 | 3.0 | 4.0 | 0.00 | 0.00 | 0.00 | 88 | 1011.7 |
| 20260504011209 | 58 | 5 | 2.0 | 4.0 | 0.00 | 0.00 | 0.00 | 88 | 1011.7 |
| 20260504010719 | 58 | 1 | 2.0 | 4.0 | 0.00 | 0.00 | 0.00 | 88 | 1011.7 |
| 20260504010216 | 58 | 5 | 2.0 | 5.0 | 0.00 | 0.00 | 0.00 | 88 | 1011.5 |
| 20260504005719 | 58 | 21 | 2.0 | 7.0 | 0.00 | 0.00 | 0.00 | 88 | 1011.7 |
| 20260504005215 | 58 | 8 | 3.0 | 7.0 | 0.00 | 0.00 | 0.00 | 88 | 1011.7 |
| 20260504004708 | 58 | 12 | 4.0 | 8.0 | 0.00 | 0.00 | 0.00 | 88 | 1011.7 |
| 20260504004213 | 58 | 358 | 5.0 | 8.0 | 0.00 | 0.00 | 0.00 | 88 | 1011.6 |
| 20260504003707 | 58 | 12 | 5.0 | 8.0 | 0.00 | 0.00 | 0.00 | 88 | 1011.6 |
| 20260504003206 | 58 | 16 | 5.0 | 6.0 | 0.00 | 0.00 | 0.00 | 88 | 1011.6 |
| 20260504002716 | 58 | 1 | 4.0 | 5.0 | 0.00 | 0.00 | 0.00 | 88 | 1011.7 |
| 20260504002212 | 58 | 11 | 3.0 | 7.0 | 0.00 | 0.00 | 0.00 | 88 | 1012.0 |
| 20260504001715 | 58 | 60 | 1.0 | 7.0 | 0.00 | 0.00 | 0.00 | 87 | 1012.0 |
| 20260504001219 | 58 | 22 | 4.0 | 7.0 | 0.00 | 0.00 | 0.00 | 87 | 1012.0 |
| 20260504000704 | 58 | 25 | 3.0 | 8.0 | 0.00 | 0.00 | 0.00 | 87 | 1012.0 |
| 20260504000213 | 58 | 68 | 5.0 | 8.0 | 0.00 | 0.00 | 0.00 | 87 | 1012.0 |
| 20260503235718 | 59 | 67 | 4.0 | 7.0 | 0.00 | 0.00 | 0.00 | 86 | 1012.0 |
| 20260503234714 | 59 | 8 | 4.0 | 7.0 | 0.00 | 0.00 | 0.00 | 87 | 1012.0 |
| 20260503234217 | 59 | 39 | 3.0 | 5.0 | 0.00 | 0.00 | 0.00 | 86 | 1012.2 |
| 20260503233706 | 59 | 12 | 3.0 | 5.0 | 0.00 | 0.00 | 0.00 | 86 | 1012.2 |
| 20260503233215 | 59 | 73 | 3.0 | 6.0 | 0.00 | 0.00 | 0.00 | 85 | 1012.3 |
| 20260503232715 | 59 | 74 | 2.0 | 8.0 | 0.00 | 0.00 | 0.00 | 84 | 1012.3 |
| 20260503232205 | 59 | 19 | 3.0 | 8.0 | 0.00 | 0.00 | 0.00 | 84 | 1012.2 |
| 20260503231712 | 59 | 36 | 4.0 | 7.0 | 0.00 | 0.00 | 0.00 | 84 | 1012.3 |
| 20260503231210 | 60 | 59 | 4.0 | 9.0 | 0.00 | 0.00 | 0.00 | 83 | 1012.3 |
| 20260503230713 | 60 | 30 | 3.0 | 9.0 | 0.00 | 0.00 | 0.00 | 83 | 1012.3 |
| 20260503230205 | 60 | 42 | 4.0 | 7.0 | 0.00 | 0.00 | 0.00 | 83 | 1012.3 |
| 20260503225711 | 60 | 14 | 4.0 | 8.0 | 0.00 | 0.00 | 0.00 | 83 | 1012.3 |
| 20260503225213 | 60 | 5 | 5.0 | 8.0 | 0.00 | 0.00 | 0.00 | 83 | 1012.3 |
| 20260503224217 | 60 | 52 | 4.0 | 8.0 | 0.00 | 0.00 | 0.00 | 83 | 1012.4 |
| 20260503223717 | 60 | 4 | 4.0 | 8.0 | 0.00 | 0.00 | 0.00 | 83 | 1012.3 |
| 20260503223210 | 60 | 12 | 5.0 | 9.0 | 0.00 | 0.00 | 0.00 | 84 | 1012.4 |
| 20260503222717 | 60 | 16 | 4.0 | 10.0 | 0.00 | 0.00 | 0.00 | 83 | 1012.4 |
| 20260503222218 | 60 | 26 | 5.0 | 10.0 | 0.00 | 0.00 | 0.00 | 82 | 1012.3 |
| 20260503221711 | 60 | 39 | 5.0 | 11.0 | 0.00 | 0.00 | 0.00 | 81 | 1012.3 |
| 20260503221211 | 60 | 57 | 6.0 | 11.0 | 0.00 | 0.00 | 0.00 | 81 | 1012.3 |
| 20260503220717 | 60 | 30 | 6.0 | 13.0 | 0.00 | 0.00 | 0.00 | 81 | 1012.2 |
| 20260503220212 | 60 | 21 | 6.0 | 13.0 | 0.00 | 0.00 | 0.00 | 81 | 1012.2 |
| 20260503215715 | 60 | 355 | 7.0 | 13.0 | 0.00 | 0.00 | 0.00 | 82 | 1012.2 |
| 20260503215218 | 60 | 26 | 7.0 | 12.0 | 0.00 | 0.00 | 0.00 | 82 | 1012.3 |
| 20260503214212 | 60 | 9 | 7.0 | 11.0 | 0.00 | 0.00 | 0.00 | 82 | 1012.3 |
| 20260503213713 | 60 | 0 | 8.0 | 12.0 | 0.00 | 0.00 | 0.00 | 83 | 1012.2 |
| 20260503213217 | 60 | 22 | 6.0 | 12.0 | 0.00 | 0.00 | 0.00 | 83 | 1012.2 |
| 20260503211707 | 60 | 11 | 7.0 | 12.0 | 0.00 | 0.00 | 0.00 | 84 | 1012.3 |
| 20260503210711 | 60 | 15 | 6.0 | 11.0 | 0.00 | 0.00 | 0.00 | 83 | 1012.3 |
| 20260503210215 | 60 | 11 | 7.0 | 11.0 | 0.00 | 0.00 | 0.00 | 83 | 1012.3 |
| 20260503205707 | 60 | 9 | 7.0 | 11.0 | 0.00 | 0.00 | 0.00 | 82 | 1012.2 |
| 20260503205210 | 60 | 16 | 7.0 | 11.0 | 0.00 | 0.00 | 0.00 | 82 | 1012.3 |
| 20260503204717 | 61 | 25 | 6.0 | 11.0 | 0.00 | 0.00 | 0.00 | 82 | 1012.3 |
| 20260503204213 | 61 | 30 | 5.0 | 14.0 | 0.00 | 0.00 | 0.00 | 81 | 1012.3 |
| 20260503202210 | 62 | 47 | 6.0 | 16.0 | 0.00 | 0.00 | 0.00 | 77 | 1012.1 |
| 20260503201216 | 62 | 47 | 8.0 | 16.0 | 0.00 | 0.00 | 0.00 | 77 | 1012.0 |
| 20260503200712 | 62 | 9 | 8.0 | 16.0 | 0.00 | 0.00 | 0.00 | 76 | 1012.1 |
| 20260503200214 | 62 | 64 | 9.0 | 16.0 | 0.00 | 0.00 | 0.00 | 76 | 1012.0 |
| 20260503195715 | 62 | 52 | 8.0 | 12.0 | 0.00 | 0.00 | 0.00 | 76 | 1012.0 |
| 20260503195216 | 62 | 59 | 7.0 | 12.0 | 0.00 | 0.00 | 0.00 | 76 | 1012.0 |